WB5MTX Weather Reports


Display with metric or nautical units.
time (UTC)temp
F
wind
direction
speed
MPH
gust
MPH
rain 1hr
in
rain 24hr
in
rain mn
in
humidity
%
barometer
mb
20260901091559 80 0 0.0 5.0 0.00 0.00 0.00 65 1016.3
20260901084613 80 0 0.0 2.0 0.00 0.00 0.00 62 1016.1
20260901083103 80 189 0.0 5.0 0.00 0.00 0.00 61 1016.0
20260901081615 80 0 0.0 5.0 0.00 0.00 0.00 61 1016.1
20260901080101 80 0 0.0 3.0 0.00 0.00 0.00 61 1015.9
20260901074559 80 0 0.0 0.0 0.00 0.00 0.00 60 1015.9
20260901073104 81 0 0.0 0.0 0.00 0.00 0.00 59 1015.8
20260901071603 81 0 0.0 0.0 0.00 0.00 0.00 57 1015.7
20260901070059 81 0 0.0 0.0 0.00 0.00 0.00 56 1015.5
20260901064559 81 0 0.0 0.0 0.00 0.00 0.00 57 1015.5
20260901063103 81 0 0.0 0.0 0.00 0.00 0.00 55 1015.5
20260901061614 81 0 0.0 3.0 0.00 0.00 0.00 54 1015.4
20260901060106 81 0 0.0 0.0 0.00 0.00 0.00 54 1015.1
20260901054614 82 0 0.0 0.0 0.00 0.00 0.00 53 1015.0
20260901053124 82 0 0.0 0.0 0.00 0.00 0.00 54 1014.8
20260901051605 82 0 0.0 0.0 0.00 0.00 0.00 54 1014.7
20260901050105 83 0 0.0 0.0 0.00 0.00 0.00 54 1014.6
20260901044559 83 0 0.0 0.0 0.00 0.00 0.00 54 1014.6
20260901043103 84 0 0.0 0.0 0.00 0.00 0.00 53 1014.6
20260901041608 84 0 0.0 0.0 0.00 0.00 0.00 51 1014.7
20260901040131 84 0 0.0 0.0 0.00 0.00 0.00 50 1014.7
20260901034601 85 0 0.0 0.0 0.00 0.00 0.00 49 1014.8
20260901033110 86 0 0.0 0.0 0.00 0.00 0.00 48 1014.6
20260901031611 86 0 0.0 0.0 0.00 0.00 0.00 47 1014.6
20260901030105 87 0 0.0 0.0 0.00 0.00 0.00 48 1014.4
20260901024605 88 0 0.0 0.0 0.00 0.00 0.00 47 1014.3
20260901023106 89 0 0.0 0.0 0.00 0.00 0.00 47 1014.1
20260901021605 90 0 0.0 0.0 0.00 0.00 0.00 45 1014.0
20260901014605 91 0 0.0 0.0 0.00 0.00 0.00 39 1013.6
20260901013107 92 0 0.0 3.0 0.00 0.00 0.00 39 1013.5
20260901011608 93 115 0.0 4.0 0.00 0.00 0.00 38 1013.4
20260901010105 93 0 0.0 8.0 0.00 0.00 0.00 38 1013.3
20260901004606 94 97 0.0 9.0 0.00 0.00 0.00 37 1013.4
20260901003106 94 0 0.0 5.0 0.00 0.00 0.00 38 1013.3
20260901001606 95 0 0.0 3.0 0.00 0.00 0.00 36 1013.3
20260901000107 96 0 0.0 3.0 0.00 0.00 0.00 36 1013.3
20260831234606 96 0 1.0 7.0 0.00 0.00 0.00 34 1013.4
20260831233101 98 109 1.0 8.0 0.00 0.00 0.00 34 1013.3
20260831231606 99 0 1.0 7.0 0.00 0.00 0.00 31 1013.3
20260831230141 100 104 0.0 9.0 0.00 0.00 0.00 31 1013.3
20260831224614 99 0 1.0 9.0 0.00 0.00 0.00 30 1013.3
20260831223111 99 105 0.0 8.0 0.00 0.00 0.00 30 1013.4
20260831221627 100 126 2.0 9.0 0.00 0.00 0.00 31 1013.4
20260831220100 99 0 2.0 8.0 0.00 0.00 0.00 31 1013.7
20260831214559 100 0 0.0 9.0 0.00 0.00 0.00 30 1013.8
20260831213112 100 92 3.0 9.0 0.00 0.00 0.00 31 1014.0
20260831211616 100 0 0.0 7.0 0.00 0.00 0.00 31 1014.2
20260831210100 97 0 0.0 7.0 0.00 0.00 0.00 32 1014.3
20260831204605 98 88 1.0 11.0 0.00 0.00 0.00 33 1014.4
20260831203104 99 0 3.0 10.0 0.00 0.00 0.00 33 1014.6
20260831201605 99 210 1.0 11.0 0.00 0.00 0.00 33 1014.9
20260831194659 100 0 0.0 9.0 0.00 0.00 0.00 33 1015.1
20260831193101 99 98 0.0 6.0 0.00 0.00 0.00 35 1015.3
20260831191608 98 0 1.0 8.0 0.00 0.00 0.00 35 1015.6
20260831190111 96 113 0.0 9.0 0.00 0.00 0.00 37 1015.6
20260831184617 98 0 1.0 11.0 0.00 0.00 0.00 36 1015.8
20260831183109 98 121 1.0 12.0 0.00 0.00 0.00 38 1015.9
20260831181607 99 0 2.0 9.0 0.00 0.00 0.00 36 1016.2
20260831180111 97 0 0.0 12.0 0.00 0.00 0.00 37 1016.4
20260831174606 97 0 1.0 12.0 0.00 0.00 0.00 37 1016.7
20260831173101 97 0 1.0 9.0 0.00 0.00 0.00 38 1017.0
20260831171606 96 0 0.0 11.0 0.00 0.00 0.00 38 1017.2
20260831170131 94 0 2.0 10.0 0.00 0.00 0.00 39 1017.2
20260831164601 94 198 0.0 8.0 0.00 0.00 0.00 41 1017.3
20260831163102 93 233 1.0 7.0 0.00 0.00 0.00 43 1017.3
20260831161615 93 202 1.0 8.0 0.00 0.00 0.00 43 1017.4
20260831160106 91 0 1.0 10.0 0.00 0.00 0.00 45 1017.4
20260831154632 91 213 1.0 6.0 0.00 0.00 0.00 49 1017.3
20260831153107 89 234 1.0 10.0 0.00 0.00 0.00 50 1017.2
20260831151606 88 181 1.0 12.0 0.00 0.00 0.00 53 1017.1
20260831150106 86 193 0.0 10.0 0.00 0.00 0.00 58 1017.1
20260831144605 86 166 1.0 7.0 0.00 0.00 0.00 61 1017.1
20260831143107 84 165 1.0 12.0 0.00 0.00 0.00 64 1017.2
20260831141600 83 0 2.0 11.0 0.00 0.00 0.00 67 1017.1
20260831140059 81 0 0.0 9.0 0.00 0.00 0.00 70 1017.0
20260831134607 80 223 1.0 9.0 0.00 0.00 0.00 73 1017.0
20260831133106 78 0 1.0 8.0 0.00 0.00 0.00 76 1016.7
20260831131602 77 0 0.0 5.0 0.00 0.00 0.00 78 1016.5
20260831130109 76 0 0.0 5.0 0.00 0.00 0.00 78 1016.3
20260831124605 76 0 0.0 4.0 0.00 0.00 0.00 78 1016.1
20260831123102 76 0 0.0 6.0 0.00 0.00 0.00 79 1016.0
20260831121604 76 0 0.0 4.0 0.00 0.00 0.00 78 1015.8
20260831120112 76 198 0.0 5.0 0.00 0.00 0.00 77 1015.6
20260831114609 76 0 0.0 2.0 0.00 0.00 0.00 76 1015.4
20260831113104 76 0 0.0 5.0 0.00 0.00 0.00 76 1015.3
20260831111616 76 0 0.0 5.0 0.00 0.00 0.00 75 1015.1
20260831104604 77 0 0.0 4.0 0.00 0.00 0.00 73 1015.1
20260831103118 77 0 0.0 3.0 0.00 0.00 0.00 73 1015.0
20260831101603 77 0 0.0 0.0 0.00 0.00 0.00 72 1015.0
20260831100103 77 0 0.0 2.0 0.00 0.00 0.00 71 1015.0
20260831094602 77 0 0.0 2.0 0.00 0.00 0.00 70 1014.9
20260831093102 77 0 0.0 0.0 0.00 0.00 0.00 70 1014.9